INMARSAT 3-F5

Last updated on Sun Jan 18 2026 00:02:44 GMT+0000 (Coordinated Universal Time)

1 25153U 98006B 26017.53704633 -.00000281 00000+0 00000+0 0 9996 2 25153 9.3549 54.7454 0005109 249.6870 311.8569 1.00270005102380
UTC large
Height (km)
Speed (km/s)
/
Latitude / Longitude
Inclination (degrees)
Orbital Period (minutes)
Azimuth
Elevation
Range (km)
Doppler Factor

Next 0 passes for location: London (51.5072 / 0.1276)

Sorry there are no passes over London.